Flag for Senegal Weather past 2 weeks in Dakar, Senegal

Now
82 °F

Passing clouds.


Feels Like: 88 °F
Forecast: N/A
Wind: 5 mph from South

Location: Dakar / Yoff

Current Time: Aug 1, 2015 at 9:11:22 PM

Latest Report: Aug 1, 2015 at 9:00 PM


Visibility: N/A

Pressure: 29.86 "Hg

Humidity: 74%

Dew point: 73 °F

Location of DakarLocation

Historic Weather in Dakar — Graph

°F

Dakar temperature yesterday

Maximum temperature yesterday: 86 °F (at 1:00 PM)
Minimum temperature yesterday: 77 °F (at 1:02 AM)
Average temperature yesterday: 81 °F

Past Weeks' High & Low Weather Summary

 TemperatureHumidityPressure
High90 °F (Jul 18, 1:30 PM)94% (Jul 30, 3:00 PM)30.01 "Hg (Jul 30, 3:00 PM)
Low75 °F (Jul 25, 9:00 PM)59% (Jul 23, 1:00 PM)29.83 "Hg (Jul 20, 4:00 AM)
Average82 °F76%29.90 "Hg
* Reported Jul 17 8:00 PM — Aug 1 8:00 PM, Dakar, Weather by CustomWeather, © 2015

Note: Actual official high and low records may vary slightly from our data, if they occured in-between our weather recording intervals... More about our weather records

Advertising

Dakar weather history for previous 24 hours

 ConditionsComfort  
Time TempWeatherWind HumidityBarometerVisibility
8:00 PM
Sat, Aug 1
82 °FPassing clouds.5 mph74%29.83 "HgN/A
7:30 PM82 °FScattered clouds.7 mph79%29.83 "HgN/A
7:00 PM84 °FScattered clouds.7 mph74%29.83 "HgN/A
6:30 PM84 °FScattered clouds.7 mph70%29.83 "HgN/A
6:00 PM86 °FScattered clouds.7 mph70%29.83 "HgN/A
5:30 PM86 °FScattered clouds.7 mph70%29.83 "HgN/A
5:00 PM86 °FScattered clouds.8 mph70%29.83 "HgN/A
4:30 PM88 °FScattered clouds.6 mph66%29.83 "HgN/A
4:00 PM86 °FScattered clouds.7 mph70%29.83 "HgN/A
3:30 PM88 °FScattered clouds.7 mph66%29.83 "HgN/A
3:00 PM86 °FScattered clouds.7 mph70%29.86 "HgN/A
2:30 PM86 °FScattered clouds.7 mph70%29.86 "HgN/A
2:00 PM84 °FScattered clouds.5 mph70%29.86 "HgN/A
1:30 PM84 °FBroken clouds.6 mph74%29.89 "HgN/A
1:00 PM84 °FBroken clouds.7 mph74%29.89 "HgN/A
12:30 PM84 °FBroken clouds.7 mph74%29.89 "HgN/A
12:00 PM84 °FBroken clouds.6 mph74%29.89 "HgN/A
11:30 AM84 °FScattered clouds.3 mph74%29.89 "HgN/A
11:00 AM84 °FScattered clouds.3 mph70%29.89 "HgN/A
10:30 AM84 °FScattered clouds.5 mph74%29.89 "HgN/A
10:00 AM82 °FScattered clouds.3 mph74%29.89 "HgN/A
9:30 AM82 °FScattered clouds.5 mph74%29.89 "HgN/A
9:00 AM81 °FScattered clouds.3 mph79%29.89 "HgN/A
8:30 AM81 °FWarm.N/A79%29.89 "HgN/A
8:00 AM81 °FScattered clouds.3 mph84%29.86 "HgN/A
7:30 AM79 °FScattered clouds.3 mph84%29.86 "HgN/A
7:00 AM79 °FScattered clouds.5 mph84%29.86 "HgN/A
6:30 AM79 °FPartly cloudy.3 mph84%29.83 "HgN/A
6:00 AM79 °FPassing clouds.2 mph84%29.83 "HgN/A
5:30 AM81 °FPassing clouds.35 mph79%29.83 "HgN/A
5:00 AM81 °FPassing clouds.3 mph79%29.83 "HgN/A
4:30 AM81 °FPassing clouds.3 mph79%29.83 "HgN/A
4:00 AM79 °FPassing clouds.3 mph84%29.86 "HgN/A
3:00 AM81 °FPassing clouds.5 mph84%29.86 "HgN/A
2:30 AM81 °FPassing clouds.6 mph84%29.86 "HgN/A
2:00 AM81 °FPassing clouds.6 mph84%29.86 "HgN/A
1:30 AM81 °FPassing clouds.5 mph79%29.89 "HgN/A
1:00 AM81 °FPassing clouds.5 mph79%29.89 "HgN/A
12:30 AM81 °FPassing clouds.3 mph84%29.89 "HgN/A
12:00 AM81 °FPassing clouds.3 mph84%29.89 "HgN/A
11:30 PM
Fri, Jul 31
81 °FPassing clouds.3 mph84%29.89 "HgN/A
11:00 PM81 °FPassing clouds.3 mph84%29.89 "HgN/A
10:30 PM81 °FPassing clouds.3 mph84%29.89 "HgN/A
10:00 PM81 °FPassing clouds.3 mph84%29.89 "HgN/A
9:30 PM81 °FPassing clouds.5 mph84%29.89 "HgN/A
9:00 PM81 °FPassing clouds.5 mph84%29.86 "HgN/A
Weather by CustomWeather, © 2015

See weather overviewHow to use our weather pages